Location: Home
(42.5358°N, 72.7383°W)
Time: 10:43:10
(UTC-05:00)

S-56A Canister/Altair - Pass Details

Date: 03 December 2021
Orbit: 634 x 2499 km, 38.9° (Epoch: 22 January)

Event Time Altitude Azimuth Distance (km) Brightness Sun altitude
Rises 02:39:59 0° 267° (W) 4,322 - -47.7°
Reaches altitude 10° 02:43:24 10° 264° (W) 3,056 - -47.0°
Maximum altitude 02:50:19 61° 186° (S) 969 - -45.8°
Drops below altitude 10° 02:55:13 10° 106° (ESE) 2,193 - -44.9°
Exits shadow 02:56:03 - 104° (ESE) 2,512 10.7 -44.8°
Sets 02:57:20 0° 103° (ESE) 3,015 11.3 -44.5°
